This demonstration page uses our WeatherBlox Daily Observations layout. Learn more.

Left ArrowRight Arrow

Hourly Observations for July 25, 2021

Temp ( °F °C ) Dew Point ( °F °C ) Humidity (%) Winds ( mph kmh ) Pressure ( in mb ) Visibility ( mi km ) Precip ( " mm )
12:15 am 00:15 Clear 72 22.2 69 20.5 90 90 ENE 5 7 29.97 1015 10 16 N/A
12:35 am 00:35 Partly Cloudy 73 22.5 70 21.1 92 92 N N/A 29.97 1015 10 16 N/A
12:55 am 00:55 Mostly Cloudy 73 23 71 21.5 91 91 N N/A 29.96 1015 10 16 N/A
1:15 am 01:15 Partly Cloudy with Light Rain 73 23 71 21.5 91 91 ENE 5 7 29.96 1015 7 11 N/A
1:35 am 01:35 Partly Cloudy with Drizzle 74 23.6 72 22 91 91 E 8 13 29.96 1014 10 16 N/A
1:55 am 01:55 Mostly Cloudy 75 24 72 22.3 90 90 E 8 13 29.95 1014 10 16 N/A
2:15 am 02:15 Cloudy 76 24.5 73 22.6 89 89 E 9 15 29.95 1014 7 11 N/A
2:35 am 02:35 Cloudy with Light Rain 76 24.3 73 22.7 91 91 ESE 6 9 29.95 1014 7 11 N/A
2:55 am 02:55 Cloudy 75 24.1 73 22.7 92 92 N N/A 29.95 1014 5 8 N/A
3:15 am 03:15 Mostly Cloudy 75 23.7 73 22.5 93 93 E 9 15 29.94 1014 5 8 0.01 0.25
3:35 am 03:35 Partly Cloudy with Thunderstorms 75 23.7 73 22.5 93 93 ENE 7 11 29.95 1014 5 8 0.01 0.25
3:55 am 03:55 Mostly Cloudy 74 23.6 73 22.5 94 94 NE 3 6 29.96 1014 4 6 0.01 0.25
4:15 am 04:15 Mostly Cloudy with Thunderstorms 74 23.5 73 22.5 94 94 W 3 6 29.96 1015 3 5 0.01 0.25
4:35 am 04:35 Partly Cloudy with Thunderstorms 74 23.6 73 22.8 95 95 S 8 13 29.95 1014 4 6 0.01 0.25
4:55 am 04:55 Partly Cloudy 75 23.9 72 22.2 90 90 ESE 7 11 29.95 1014 7 11 0.02 0.51
5:15 am 05:15 Partly Cloudy with Rain 74 23.5 72 22.2 92 92 N N/A 29.94 1014 5 8 0.02 0.51
5:35 am 05:35 Partly Cloudy with Thunderstorms 74 23.2 72 22.2 94 94 N N/A 29.94 1014 4 6 0.03 0.76
5:55 am 05:55 Partly Cloudy with Rain 74 23.5 72 22 91 91 S 7 11 29.94 1014 7 11 0.04 1.02
6:15 am 06:15 Partly Cloudy 74 23.3 72 22 92 92 ESE 8 13 29.94 1014 7 11 0.01 0.25
6:35 am 06:35 Partly Cloudy 74 23.4 71 21.9 91 91 ESE 7 11 29.96 1015 7 11 0.02 0.51
6:55 am 06:55 Mostly Cloudy with Thunderstorms 73 23 71 21.6 92 92 N N/A 29.96 1015 7 11 0.03 0.76
7:15 am 07:15 Partly Cloudy 73 22.7 70 21.1 91 91 E 3 6 29.96 1015 10 16 N/A
7:35 am 07:35 Mostly Cloudy with Strong Thunderstorms 72 22.2 70 21 93 93 SSE 5 7 29.96 1015 5 8 0.05 1.27
7:55 am 07:55 Cloudy 71 21.6 69 20.7 95 95 ESE 7 11 29.96 1015 3 5 0.36 9.14
8:15 am 08:15 Mostly Cloudy with Thunderstorms 71 21.5 69 20.5 94 94 SSW 6 9 29.99 1016 5 8 0.18 4.57
8:35 am 08:35 Mostly Cloudy with Thunderstorms 70 21.3 68 19.8 91 91 S 7 11 30.00 1016 7 11 0.21 5.33
8:55 am 08:55 Cloudy with Thunderstorms 70 21 67 19.7 92 92 SE 8 13 30.01 1016 7 11 0.24 6.10
9:15 am 09:15 Cloudy 69 20.4 66 19 92 92 SSE 9 15 30.00 1016 7 11 0.05 1.27
9:35 am 09:35 Cloudy 68 20.1 66 18.9 93 93 SSE 9 15 29.99 1015 3 5 0.16 4.06
9:55 am 09:55 Cloudy with Thunderstorms 69 20.4 65 18.5 89 89 NE 5 7 30.02 1017 7 11 0.18 4.57
10:15 am 10:15 Mostly Cloudy with Thunderstorms 69 20.8 65 18.2 85 85 N N/A 30.01 1016 7 11 0.01 0.25
10:35 am 10:35 Cloudy with Thunderstorms 68 20 65 18.5 91 91 N N/A 30.04 1017 4 6 0.10 2.54
10:55 am 10:55 Partly Cloudy 68 20.1 65 18.6 91 91 SSE 9 15 30.01 1016 10 16 0.10 2.54
11:15 am 11:15 Sunny with Light Rain 69 20.3 66 19 92 92 SE 6 9 30.04 1017 10 16 N/A
11:35 am 11:35 Sunny with Nearby Thunderstorms 68 20.1 65 18.3 89 89 SSE 7 11 30.08 1018 10 16 N/A
11:55 am 11:55 Sunny with Nearby Thunderstorms 68 19.8 63 17.2 85 85 SE 7 11 30.06 1018 10 16 N/A
12:15 pm 12:15 Sunny 67 19.6 63 17.1 86 86 SSE 6 9 30.06 1018 10 16 N/A
12:35 pm 12:35 Sunny 67 19.5 62 16.8 84 84 S 7 11 30.06 1018 10 16 N/A
12:55 pm 12:55 Sunny 67 19.5 62 16.4 82 82 S 8 13 30.04 1017 10 16 N/A
1:15 pm 13:15 Sunny 67 19.5 62 16.6 83 83 SSW 5 7 30.04 1017 10 16 N/A
1:35 pm 13:35 Sunny 68 19.8 62 16.5 81 81 SSW 5 7 30.04 1017 10 16 N/A
1:55 pm 13:55 Sunny 68 19.8 62 16.6 82 82 SSW 5 7 30.04 1017 10 16 N/A
2:15 pm 14:15 Sunny 68 20 62 16.5 80 80 N N/A 30.04 1017 10 16 N/A
2:35 pm 14:35 Sunny 68 20.1 62 16.4 79 79 N N/A 30.03 1017 10 16 N/A
2:55 pm 14:55 Sunny 69 20.5 62 16.9 80 80 N N/A 30.01 1016 10 16 N/A
3:15 pm 15:15 Sunny 70 21.2 63 17.2 78 78 N N/A 30.00 1016 10 16 N/A
3:35 pm 15:35 Sunny 73 22.6 63 17.2 72 72 SW 6 9 29.98 1015 10 16 N/A
3:55 pm 15:55 Sunny 74 23.5 63 17.3 68 68 SSW 3 6 29.96 1015 10 16 N/A
4:15 pm 16:15 Sunny 76 24.3 64 17.6 66 66 S 3 6 29.94 1014 10 16 N/A
4:35 pm 16:35 Sunny 76 24.5 63 17.3 64 64 N N/A 29.94 1014 10 16 N/A
4:55 pm 16:55 Sunny 77 24.8 63 17.3 63 63 N N/A 29.93 1013 10 16 N/A
5:15 pm 17:15 Sunny 77 25 63 17.4 63 63 N N/A 29.92 1013 10 16 N/A
5:35 pm 17:35 Sunny 77 25.1 64 17.9 64 64 ENE 3 6 29.93 1013 10 16 N/A
5:55 pm 17:55 Sunny 77 25.2 64 17.7 63 63 N N/A 29.93 1014 10 16 N/A
6:15 pm 18:15 Sunny 78 25.5 65 18.1 64 64 N N/A 29.94 1014 10 16 N/A
6:35 pm 18:35 Sunny 78 25.4 65 18.1 64 64 N N/A 29.93 1014 10 16 N/A
6:55 pm 18:55 Sunny 78 25.4 65 18.4 65 65 N N/A 29.91 1013 10 16 N/A
7:15 pm 19:15 Sunny 77 25 65 18.6 68 68 N N/A 29.91 1013 10 16 N/A
7:35 pm 19:35 Sunny 77 24.9 66 18.8 69 69 N N/A 29.90 1012 10 16 N/A
7:55 pm 19:55 Sunny 76 24.7 66 18.9 70 70 SE 3 6 29.90 1012 10 16 N/A
8:15 pm 20:15 Sunny 76 24.5 68 19.8 75 75 SE 3 6 29.90 1013 10 16 N/A
8:35 pm 20:35 Sunny 73 22.7 69 20.3 86 86 E 5 7 29.92 1013 10 16 N/A
8:55 pm 20:55 Sunny 72 22 68 20 88 88 E 5 7 29.94 1014 10 16 N/A
9:15 pm 21:15 Clear 70 21 67 19.6 92 92 E 6 9 29.96 1015 10 16 N/A
9:35 pm 21:35 Clear 70 21.3 67 19.7 91 91 ESE 7 11 29.97 1015 10 16 N/A
9:55 pm 21:55 Clear 68 20.1 66 18.9 93 93 ESE 3 6 29.99 1015 10 16 N/A
10:15 pm 22:15 Clear 68 20 66 19 94 94 SE 7 11 29.99 1015 10 16 N/A
10:35 pm 22:35 Clear 69 20.5 66 18.7 89 89 ESE 6 9 29.99 1016 10 16 N/A
10:55 pm 22:55 Clear 67 19.5 65 18.2 92 92 ESE 6 9 30.00 1016 10 16 N/A
11:15 pm 23:15 Clear 67 19.5 65 18.5 94 94 N N/A 30.01 1016 10 16 N/A
11:35 pm 23:35 Clear 67 19.3 65 18.1 93 93 N N/A 30.00 1016 10 16 N/A
11:55 pm 23:55 Clear 66 19 65 18.1 95 95 N N/A 30.01 1016 10 16 N/A

Powered by AerisWeather